[[{"header":{"parameterUnit":"m.s-1","parameterCategory":2,"la1":30.2992,"la2":30.254,"lo1":-89.0895,"lo2":-89.0443,"dy":0.0025,"dx":0.0025,"nx":19,"ny":19,"refTime":"2026-03-20T09:00:00:Z","depth":"0","parameterNumber":2,"parameterNumberName":"U-component_of_CURRENTS"},"data":[0,0,0,0.0897,0.0899,0.0997,0.0997,0.1073,0.1073,0,0,0,0,0,0,0,0,0,0,0,0.0857,0.0858,0.0897,0.09,0.0997,0.0997,0.1073,0.1073,0,0,0,0,0,0,0,0,0,0,0,0.0857,0.0858,0.0859,0.09,0.0996,0.0997,0.1072,0.1009,0,0,0,0,0,0,0,0,0,0,0.0919,0.0889,0.0857,0.0859,0.0901,0.0996,0.0997,0.1006,0.1013,0.1018,0,0.104,0,0.1066,0.1078,0.1079,0,0,0,0.0889,0.0884,0.0918,0.0859,0.0902,0.0996,0.095,0.101,0.1017,0.1027,0.1042,0.1045,0.1067,0.1079,0.1079,0.118,0.1181,0,0,0.0884,0.0866,0.0913,0.0922,0.0936,0.0947,0.0953,0.1015,0.1021,0.1042,0.1047,0.1069,0.1079,0.108,0.118,0.118,0,0,0,0.0875,0.0862,0.0895,0.0919,0.0945,0.095,0.0957,0.1018,0.1031,0.1049,0.107,0.108,0.1081,0.1179,0.118,0.1228,0,0,0,0.0872,0.0858,0.0892,0.0881,0.0944,0.0989,0.0958,0.1027,0.1035,0.1069,0.108,0.1081,0.1178,0.1179,0.1226,0.1267,0,0,0,0.0851,0.0856,0.0871,0.088,0.0929,0.0989,0.1005,0.1029,0.1048,0.1079,0.1081,0.1178,0.1179,0.1223,0.1262,0.1373,0,0,0,0.0822,0.087,0.0871,0.0933,0.0928,0.1001,0.1005,0.1056,0.1084,0.108,0.1178,0.118,0.1222,0.1259,0.1369,0.1516,0.1547,0,0,0.087,0.0875,0.0914,0.0918,0.0997,0.0986,0.1059,0.1094,0.1106,0.1151,0.1154,0.1226,0.1262,0.1372,0.1592,0.1621,0,0,0,0.0922,0.0945,0.0972,0.1016,0.1056,0.1091,0.1112,0.1137,0.1197,0.1132,0.124,0.1261,0.1329,0.141,0.1433,0.1598,0.1186,0.1186,0.1186,0.095,0.0982,0.1043,0.1082,0.1117,0.1162,0.121,0.1246,0.1232,0.1272,0.1309,0.1439,0.1523,0.1543,0.171,0.1309,0.1309,0.1309,0.1309,0.1023,0.1065,0.1086,0.1153,0.118,0.1226,0.13,0.1317,0.1435,0.1375,0.1439,0.1466,0.1572,0.1741,0.1313,0.1312,0.1312,0.1311,0.1311,0.1054,0.1076,0.1108,0.1176,0.1234,0.1273,0.1384,0.1436,0.1498,0.1564,0.1693,0.1693,0.184,0.1608,0.1609,0.1609,0.161,0.161,0.1611,0.1067,0.1102,0.1149,0.1208,0.1248,0.1326,0.1448,0.1551,0.1729,0.1788,0.179,0.1928,0.1532,0.1517,0.1621,0.1619,0.1618,0.1617,0.1616,0.112,0.1122,0.1194,0.1236,0.1334,0.1449,0.1536,0.18,0.193,0.2059,0.2273,0.1926,0.1942,0.1924,0.192,0.2123,0.2123,0.2123,0.2123,0.1138,0.1151,0.1246,0.1325,0.1419,0.1517,0.1747,0.1966,0.2332,0.2552,0.2573,0.254,0.2512,0.2557,0.2525,0.2531,0.2884,0.2885,0.2886,0.1167,0.1196,0.1277,0.1363,0.1469,0.1613,0.183,0.2075,0.2641,0.2927,0.2783,0.2751,0.27,0.2643,0.27,0.2642,0.2644,0,0]},{"header":{"parameterUnit":"m.s-1","parameterCategory":2,"la1":30.2992,"la2":30.254,"lo1":-89.0895,"lo2":-89.0443,"dy":0.0025,"dx":0.0025,"nx":19,"ny":19,"refTime":"2026-03-20T09:00:00:Z","depth":"0","parameterNumber":3,"parameterNumberName":"V-component_of_CURRENTS"},"data":[0,0,0,0.0794,0.0794,0.0775,0.0775,0.0712,0.0712,0,0,0,0,0,0,0,0,0,0,0,0.0786,0.0786,0.0794,0.0794,0.0775,0.0775,0.0712,0.0712,0,0,0,0,0,0,0,0,0,0,0,0.0787,0.0786,0.0786,0.0794,0.0775,0.0775,0.0713,0.0735,0,0,0,0,0,0,0,0,0,0,0.0758,0.0766,0.0786,0.0786,0.0794,0.0775,0.0775,0.0736,0.0733,0.0712,0,0.0702,0,0.0713,0.0707,0.0707,0,0,0,0.0788,0.0769,0.0758,0.0786,0.0794,0.0775,0.0782,0.0735,0.0732,0.0708,0.0701,0.0699,0.0712,0.0707,0.0706,0.0673,0.0673,0,0,0.0789,0.0788,0.0761,0.0756,0.0778,0.0782,0.0781,0.0733,0.0727,0.0701,0.0698,0.0711,0.0706,0.0706,0.0673,0.0673,0,0,0,0.0796,0.0789,0.0781,0.0758,0.0762,0.0782,0.0781,0.073,0.0725,0.0698,0.071,0.0706,0.0705,0.0673,0.0673,0.0717,0,0,0,0.0796,0.0794,0.0781,0.0781,0.0763,0.0754,0.0778,0.0728,0.0724,0.071,0.0706,0.0704,0.0673,0.0673,0.0716,0.0789,0,0,0,0.0789,0.0794,0.0787,0.0781,0.0777,0.0755,0.0748,0.0727,0.0731,0.0707,0.0704,0.0672,0.0673,0.0714,0.0784,0.0857,0,0,0,0.0796,0.0796,0.0787,0.079,0.0777,0.0778,0.0748,0.0742,0.0725,0.0706,0.0673,0.0673,0.0714,0.0782,0.0853,0.0973,0.0998,0,0,0.0806,0.0797,0.0801,0.0793,0.0815,0.0781,0.0787,0.0749,0.0721,0.0684,0.0683,0.0716,0.0784,0.0856,0.0992,0.1017,0,0,0,0.0811,0.0815,0.0818,0.0825,0.0818,0.0822,0.0778,0.076,0.0734,0.0714,0.0711,0.0753,0.0797,0.0861,0.088,0.076,0.0674,0.0674,0.0674,0.0853,0.0848,0.0868,0.086,0.0859,0.0842,0.0842,0.0808,0.0752,0.0749,0.0782,0.0866,0.0931,0.0948,0.0821,0.0746,0.0746,0.0746,0.0746,0.0902,0.0923,0.0914,0.0931,0.0925,0.0926,0.0897,0.0867,0.0886,0.0818,0.0856,0.0897,0.0973,0.0829,0.0749,0.0749,0.0748,0.0748,0.0748,0.0962,0.0968,0.0967,0.0986,0.1016,0.0994,0.1059,0.1019,0.0969,0.1002,0.1086,0.1086,0.0971,0.1017,0.1018,0.1018,0.1019,0.1019,0.102,0.1023,0.102,0.1037,0.1051,0.1076,0.1126,0.1164,0.1202,0.1232,0.1193,0.1193,0.0995,0.095,0.0952,0.1029,0.1028,0.1026,0.1025,0.1025,0.109,0.1072,0.1107,0.1125,0.1185,0.1295,0.1328,0.1464,0.149,0.1535,0.1261,0.1289,0.1305,0.1289,0.13,0.1464,0.1464,0.1464,0.1464,0.1128,0.1124,0.1159,0.1204,0.128,0.137,0.1587,0.1711,0.1613,0.1517,0.1368,0.1283,0.1271,0.1276,0.1261,0.1266,0.1418,0.1417,0.1417,0.1162,0.1171,0.1209,0.124,0.1321,0.1474,0.1712,0.1912,0.1695,0.1394,0.1175,0.1178,0.1021,0.1012,0.0991,0.0979,0.0978,0,0]}],[{"header":{"parameterUnit":"m.s-1","parameterCategory":2,"la1":30.2992,"la2":30.254,"lo1":-89.0895,"lo2":-89.0443,"dy":0.0025,"dx":0.0025,"nx":19,"ny":19,"refTime":"2026-03-20T09:00:00:Z","depth":"2","parameterNumber":2,"parameterNumberName":"U-component_of_CURRENTS"},"data":[0,0,0,-0.0166,-0.0164,-0.0034,-0.0033,0.0126,0.0127,0,0,0,0,0,0,0,0,0,0,0,-0.0209,-0.0208,-0.0166,-0.0163,-0.0034,-0.0033,0.0126,0.0127,0,0,0,0,0,0,0,0,0,0,0,-0.0209,-0.0208,-0.0207,-0.0163,-0.0034,-0.0033,0.0126,0.0032,0,0,0,0,0,0,0,0,0,0,-0.0092,-0.014,-0.0208,-0.0207,-0.0162,-0.0034,-0.0033,0.0028,0.0038,0.0062,0,0.008,0,0.0103,0.0137,0.0137,0,0,0,-0.0153,-0.0148,-0.011,-0.0207,-0.0161,-0.0035,-0.0089,0.0033,0.0045,0.0076,0.0082,0.0089,0.0105,0.0138,0.0138,0.0321,0.0322,0,0,-0.016,-0.0186,-0.0118,-0.0103,-0.013,-0.0094,-0.0085,0.0041,0.0049,0.0083,0.0092,0.0108,0.0139,0.014,0.032,0.0321,0,0,0,-0.0188,-0.0191,-0.0155,-0.011,-0.0088,-0.009,-0.0081,0.0044,0.0057,0.0094,0.011,0.014,0.0141,0.0319,0.0321,0.0366,0,0,0,-0.0191,-0.0208,-0.0159,-0.0173,-0.0091,-0.0021,-0.0081,0.0048,0.0063,0.0109,0.014,0.0143,0.0318,0.032,0.0362,0.0376,0,0,0,-0.0214,-0.021,-0.0195,-0.0175,-0.0123,-0.0023,-0.0002,0.0052,0.0072,0.0137,0.0143,0.0318,0.032,0.0359,0.0371,0.042,0,0,0,-0.0245,-0.0215,-0.0196,-0.0154,-0.0124,-0.0024,-0.0002,0.0084,0.0143,0.014,0.0318,0.0321,0.0358,0.0368,0.0417,0.0425,0.0441,0,0,-0.0224,-0.0213,-0.0186,-0.0166,-0.0078,-0.0041,0.0072,0.0156,0.0186,0.0276,0.028,0.0363,0.0371,0.0419,0.0554,0.0565,0,0,0,-0.019,-0.0163,-0.0136,-0.0079,-0.0014,0.0082,0.0157,0.0203,0.0313,0.0229,0.0396,0.04,0.0428,0.0429,0.0438,0.0331,0.0331,0.0331,0.033,-0.0189,-0.0141,-0.0074,0.0003,0.0069,0.0183,0.0263,0.0349,0.0361,0.0425,0.0461,0.0561,0.0564,0.0571,0.0493,0.0493,0.0493,0.0493,0.0493,-0.0135,-0.0091,-0.0014,0.0071,0.0165,0.0267,0.0398,0.0437,0.0556,0.0538,0.0564,0.0507,0.0584,0.0498,0.0497,0.0496,0.0496,0.0496,0.0495,-0.0129,-0.01,-0.0035,0.0088,0.021,0.0322,0.0438,0.0529,0.0601,0.0648,0.0657,0.0656,0.057,0.067,0.0671,0.0671,0.0671,0.0671,0.0671,-0.0161,-0.0091,-0.0023,0.0102,0.017,0.0284,0.0463,0.0538,0.0663,0.0715,0.0715,0.0621,0.0615,0.0582,0.0676,0.0675,0.0675,0.0674,0.0674,-0.0163,-0.0139,-0.0049,0.0016,0.0157,0.0233,0.0391,0.0581,0.0685,0.0743,0.0755,0.0752,0.0737,0.0729,0.07,0.0819,0.0819,0.0819,0.0819,-0.0194,-0.0166,-0.0071,0.0007,0.0091,0.0207,0.0367,0.0586,0.0755,0.0841,0.084,0.0797,0.0791,0.0776,0.0767,0.0736,0.0865,0.0865,0.0865,-0.0207,-0.0173,-0.0124,-0.003,0.006,0.0164,0.0346,0.0618,0.0829,0.0866,0.0833,0.0825,0.0757,0.0749,0.0718,0.0707,0.0654,0,0]},{"header":{"parameterUnit":"m.s-1","parameterCategory":2,"la1":30.2992,"la2":30.254,"lo1":-89.0895,"lo2":-89.0443,"dy":0.0025,"dx":0.0025,"nx":19,"ny":19,"refTime":"2026-03-20T09:00:00:Z","depth":"2","parameterNumber":3,"parameterNumberName":"V-component_of_CURRENTS"},"data":[0,0,0,-0.0455,-0.0454,-0.0356,-0.0355,-0.0253,-0.0252,0,0,0,0,0,0,0,0,0,0,0,-0.0481,-0.0481,-0.0456,-0.0454,-0.0356,-0.0355,-0.0253,-0.0252,0,0,0,0,0,0,0,0,0,0,0,-0.0481,-0.0481,-0.048,-0.0453,-0.0356,-0.0355,-0.0253,-0.0318,0,0,0,0,0,0,0,0,0,0,-0.0409,-0.0422,-0.0481,-0.048,-0.0453,-0.0356,-0.0355,-0.0321,-0.0314,-0.0309,0,-0.0294,0,-0.0281,-0.0247,-0.0247,0,0,0,-0.044,-0.0427,-0.0418,-0.048,-0.0452,-0.0356,-0.0396,-0.0317,-0.0309,-0.03,-0.0292,-0.0288,-0.0279,-0.0247,-0.0247,-0.0159,-0.0159,0,0,-0.0445,-0.0446,-0.0423,-0.0413,-0.0427,-0.0399,-0.0393,-0.0312,-0.0295,-0.0292,-0.0286,-0.0277,-0.0246,-0.0246,-0.016,-0.0159,0,0,0,-0.047,-0.045,-0.0441,-0.0417,-0.0403,-0.0397,-0.039,-0.0298,-0.03,-0.0285,-0.0276,-0.0246,-0.0245,-0.016,-0.016,-0.0143,0,0,0,-0.0473,-0.0466,-0.0443,-0.0441,-0.0405,-0.0343,-0.0378,-0.0305,-0.0296,-0.0277,-0.0246,-0.0244,-0.0161,-0.016,-0.0145,-0.0122,0,0,0,-0.0486,-0.0467,-0.046,-0.0441,-0.0408,-0.0345,-0.034,-0.0302,-0.0291,-0.0247,-0.0244,-0.0161,-0.016,-0.0146,-0.0125,-0.0125,0,0,0,-0.0485,-0.0458,-0.0459,-0.0425,-0.0409,-0.036,-0.034,-0.029,-0.0252,-0.0246,-0.0161,-0.016,-0.0146,-0.0126,-0.0126,-0.0249,-0.0253,0,0,-0.0454,-0.0454,-0.0437,-0.0437,-0.0394,-0.0372,-0.0302,-0.0247,-0.0236,-0.0188,-0.0185,-0.0144,-0.0125,-0.0125,-0.0194,-0.0201,0,0,0,-0.043,-0.0414,-0.0404,-0.0375,-0.0352,-0.0294,-0.0251,-0.0227,-0.0171,-0.0211,-0.0129,-0.0117,-0.0119,-0.0195,-0.0199,-0.0155,-0.0155,-0.0155,-0.0155,-0.039,-0.0382,-0.0342,-0.0321,-0.0287,-0.0232,-0.0185,-0.014,-0.0147,-0.012,-0.0094,-0.0065,-0.0146,-0.0151,-0.009,-0.009,-0.009,-0.009,-0.009,-0.0346,-0.0322,-0.0294,-0.025,-0.0208,-0.0148,-0.0094,-0.0086,-0.0045,-0.0055,-0.0058,-0.016,-0.0155,-0.0088,-0.0089,-0.0089,-0.0089,-0.0089,-0.0089,-0.0332,-0.0313,-0.028,-0.0207,-0.0134,-0.0087,-0.0026,-0.0005,-0.0016,-0.0008,-0.0115,-0.0117,-0.0065,-0.0026,-0.0026,-0.0025,-0.0025,-0.0025,-0.0025,-0.0327,-0.0291,-0.0231,-0.016,-0.0109,-0.0044,0.0014,0.0013,-0.005,-0.0092,-0.0094,-0.0044,-0.0046,-0.006,-0.0024,-0.0024,-0.0024,-0.0024,-0.0024,-0.0298,-0.0277,-0.0196,-0.014,-0.004,-0.0018,0.002,-0.0054,-0.0067,-0.0137,-0.015,-0.0148,-0.0166,-0.0164,-0.0182,-0.0178,-0.0178,-0.0178,-0.0178,-0.0279,-0.0264,-0.0148,-0.0071,-0.0013,0.0002,-0.0033,-0.0105,-0.0199,-0.0271,-0.0266,-0.031,-0.0303,-0.033,-0.0325,-0.0345,-0.0384,-0.0384,-0.0384,-0.0244,-0.0215,-0.0133,-0.0059,-0.0001,-0.0014,-0.0069,-0.0062,-0.021,-0.0385,-0.0227,-0.0206,-0.0262,-0.0255,-0.0289,-0.0283,-0.0313,0,0]}],[{"header":{"parameterUnit":"m.s-1","parameterCategory":2,"la1":30.2992,"la2":30.254,"lo1":-89.0895,"lo2":-89.0443,"dy":0.0025,"dx":0.0025,"nx":19,"ny":19,"refTime":"2026-03-20T09:00:00:Z","depth":"4","parameterNumber":2,"parameterNumberName":"U-component_of_CURRENTS"},"data":[0,0,0,0.0245,0.0245,0.0259,0.0259,0.0216,0.0216,0,0,0,0,0,0,0,0,0,0,0,0.0241,0.0242,0.0245,0.0245,0.0259,0.0259,0.0216,0.0216,0,0,0,0,0,0,0,0,0,0,0,0.0241,0.0242,0.0242,0.0245,0.0259,0.0259,0.0216,0.0222,0,0,0,0,0,0,0,0,0,0,0.0216,0.0223,0.0241,0.0242,0.0245,0.0259,0.0259,0.0223,0.0221,0.0191,0,0.0194,0,0.02,0.0211,0.0211,0,0,0,0.0248,0.0225,0.0224,0.0242,0.0245,0.0259,0.0254,0.0222,0.0221,0.0189,0.0194,0.0193,0.0199,0.0211,0.021,0.0163,0.0163,0,0,0.0247,0.0246,0.0226,0.0223,0.0248,0.0253,0.0254,0.0222,0.0221,0.0194,0.0192,0.0198,0.021,0.021,0.0163,0.0163,0,0,0,0.0243,0.0246,0.0247,0.0225,0.023,0.0253,0.0254,0.0223,0.0222,0.0192,0.0198,0.021,0.0209,0.0163,0.0163,0.0196,0,0,0,0.0243,0.0243,0.0247,0.0247,0.0231,0.0235,0.0255,0.0225,0.0221,0.0198,0.021,0.0208,0.0163,0.0163,0.0195,0.0209,0,0,0,0.0241,0.0243,0.0243,0.0246,0.0251,0.0236,0.0235,0.0225,0.0224,0.0211,0.0208,0.0163,0.0163,0.0194,0.0208,0.0235,0,0,0,0.024,0.0239,0.0243,0.0243,0.025,0.0246,0.0235,0.023,0.022,0.0209,0.0163,0.0163,0.0194,0.0207,0.0234,0.022,0,0,0,0.0236,0.0238,0.0237,0.0242,0.0244,0.0244,0.024,0.0224,0.0208,0.0169,0.0169,0.0195,0.0208,0.0235,0.0218,0,0,0,0,0.0235,0.0233,0.0235,0.0238,0.0238,0.0242,0.0227,0.0224,0.0211,0.0202,0.0185,0.0192,0.0208,0.0196,0.0163,0.0163,0.0163,0.0163,0.0163,0.0213,0.0222,0.0224,0.0231,0.0232,0.0234,0.024,0.0229,0.0208,0.0211,0.0212,0.0244,0.023,0.0202,0.0202,0.0203,0.0203,0.0203,0.0203,0.0197,0.0195,0.0216,0.0221,0.0232,0.0229,0.0239,0.0241,0.0253,0.0229,0.0244,0.0221,0.0206,0.0205,0.0205,0.0205,0.0204,0.0204,0.0204,0.0171,0.0175,0.0186,0.0204,0.022,0.0233,0.0259,0.027,0.0279,0.0297,0.0287,0.0268,0.0275,0.0308,0.0308,0.0308,0.0308,0.0309,0.0309,0.0139,0.0154,0.0164,0.0186,0.0201,0.0229,0.0274,0.0302,0.0324,0.0321,0.031,0.0279,0.0276,0.028,0.0312,0.0311,0.0311,0.031,0.031,0.0104,0.0115,0.0133,0.0148,0.0188,0.021,0.026,0.0329,0.0361,0.0383,0.0335,0.0333,0.0323,0.0318,0.0324,0.0369,0.0369,0.0369,0,0.0074,0.0083,0.0113,0.0139,0.0166,0.0199,0.0253,0.0305,0.0343,0.0323,0.0346,0.0288,0.0287,0.0269,0.0266,0.0269,0,0,0,0.0049,0.0069,0.0084,0.0123,0.0155,0.0216,0.0268,0.029,0.0326,0.0385,0.0368,0.0368,0.0344,0.032,0.0299,0.0295,0.0301,0,0]},{"header":{"parameterUnit":"m.s-1","parameterCategory":2,"la1":30.2992,"la2":30.254,"lo1":-89.0895,"lo2":-89.0443,"dy":0.0025,"dx":0.0025,"nx":19,"ny":19,"refTime":"2026-03-20T09:00:00:Z","depth":"4","parameterNumber":3,"parameterNumberName":"V-component_of_CURRENTS"},"data":[0,0,0,-0.0561,-0.0562,-0.0585,-0.0585,-0.0628,-0.0628,0,0,0,0,0,0,0,0,0,0,0,-0.0562,-0.0563,-0.0561,-0.0562,-0.0585,-0.0585,-0.0628,-0.0628,0,0,0,0,0,0,0,0,0,0,0,-0.0562,-0.0563,-0.0563,-0.0562,-0.0585,-0.0585,-0.0628,-0.0609,0,0,0,0,0,0,0,0,0,0,-0.0585,-0.058,-0.0562,-0.0563,-0.0562,-0.0585,-0.0585,-0.0608,-0.061,-0.0619,0,-0.0625,0,-0.0621,-0.0631,-0.0631,0,0,0,-0.0569,-0.0578,-0.0583,-0.0563,-0.0562,-0.0585,-0.0576,-0.0609,-0.0611,-0.0622,-0.0626,-0.0627,-0.0622,-0.0631,-0.0631,-0.0667,-0.0667,0,0,-0.0567,-0.0568,-0.0582,-0.0585,-0.0572,-0.0576,-0.0577,-0.061,-0.0615,-0.0626,-0.0628,-0.0622,-0.0631,-0.0631,-0.0667,-0.0667,0,0,0,-0.0559,-0.0567,-0.0571,-0.0584,-0.0583,-0.0576,-0.0578,-0.0614,-0.0615,-0.0628,-0.0623,-0.0631,-0.0632,-0.0667,-0.0667,-0.0666,0,0,0,-0.0559,-0.0561,-0.0571,-0.0571,-0.0582,-0.0596,-0.0581,-0.0613,-0.0616,-0.0623,-0.0631,-0.0632,-0.0666,-0.0667,-0.0666,-0.0665,0,0,0,-0.0561,-0.0561,-0.0565,-0.0571,-0.0577,-0.0595,-0.0599,-0.0614,-0.0613,-0.0631,-0.0632,-0.0666,-0.0667,-0.0666,-0.0665,-0.0663,0,0,0,-0.0559,-0.0549,-0.0565,-0.0559,-0.0576,-0.0579,-0.0598,-0.0619,-0.0636,-0.0631,-0.0666,-0.0667,-0.0666,-0.0665,-0.0663,-0.0558,0,0,0,-0.0538,-0.0547,-0.0542,-0.0557,-0.0548,-0.0576,-0.0589,-0.0629,-0.0641,-0.0657,-0.0658,-0.0666,-0.0665,-0.0663,-0.0574,0,0,0,0,-0.053,-0.0536,-0.0533,-0.0541,-0.0545,-0.057,-0.0605,-0.0623,-0.0656,-0.065,-0.0672,-0.0671,-0.0669,-0.0608,-0.0668,-0.0668,-0.0668,-0.0668,-0.0668,-0.0527,-0.0529,-0.0529,-0.054,-0.0543,-0.058,-0.0605,-0.0641,-0.0652,-0.0671,-0.0675,-0.0679,-0.0615,-0.068,-0.068,-0.068,-0.068,-0.068,-0.068,-0.0522,-0.0529,-0.0543,-0.0545,-0.0567,-0.0589,-0.0621,-0.0646,-0.0672,-0.0678,-0.0676,-0.0618,-0.068,-0.068,-0.068,-0.068,-0.068,-0.068,-0.068,-0.0537,-0.0535,-0.0552,-0.0564,-0.0586,-0.0607,-0.062,-0.0655,-0.0673,-0.068,-0.0612,-0.0678,-0.0673,-0.0678,-0.0678,-0.0678,-0.0678,-0.0678,-0.0678,-0.0538,-0.0547,-0.0561,-0.0578,-0.0589,-0.0604,-0.0624,-0.0623,-0.0646,-0.06,-0.0679,-0.0678,-0.0678,-0.0673,-0.0678,-0.0678,-0.0678,-0.0678,-0.0678,-0.0532,-0.0542,-0.0551,-0.0566,-0.0582,-0.058,-0.0601,-0.0551,-0.0543,-0.0517,-0.0555,-0.0561,-0.0551,-0.0554,-0.0544,-0.0511,-0.051,-0.0508,0,-0.0525,-0.0532,-0.0536,-0.0544,-0.0544,-0.0559,-0.0491,-0.0482,-0.0491,-0.0476,-0.0582,-0.0629,-0.0631,-0.0625,-0.0625,-0.0617,0,0,0,-0.0513,-0.0515,-0.0513,-0.0525,-0.0522,-0.0474,-0.0469,-0.0434,-0.0485,-0.0422,-0.0475,-0.0484,-0.0603,-0.0678,-0.0676,-0.0676,-0.0669,0,0]}]]